When you browse on this site, cookies collect data to enhance your experience and personalize the content and advertising you see.
Visit our Privacy Policy to learn more. By continuing to use the site, you agree to this use of cookies and data.
  • en France
  • Liste des pays
  • À 7 jours
  • Température de l'eau
  • Carte météo
  • Widgets météo
  • user-avatar
    Se connecter

    Météo par heure à Baranovichi

    Ce jour, 18 Février, Mardi

    Heure Température Précipitation Vent Pression Humidité
    00:00 +5°C° 0.1 mm 3 m/s 744 mmHg 89%
    01:00 +5°C° 0.1 mm 3 m/s 744 mmHg 89%
    02:00 +5°C° 0.1 mm 3 m/s 744 mmHg 89%
    03:00 +5°C° 0.1 mm 3 m/s 744 mmHg 89%
    04:00 +5°C° 0.1 mm 4 m/s 744 mmHg 88%
    05:00 +5°C° 0.1 mm 4 m/s 743 mmHg 88%
    06:00 +4°C° 0.4 mm 3 m/s 743 mmHg 90%
    07:00 +4°C° 0.4 mm 3 m/s 743 mmHg 91%
    08:00 +5°C° 0.4 mm 2 m/s 743 mmHg 93%
    09:00 +4°C° 0 mm 3 m/s 743 mmHg 87%
    10:00 +5°C° 0 mm 4 m/s 743 mmHg 81%
    11:00 +6°C° 0 mm 5 m/s 743 mmHg 75%
    12:00 +6°C° 0.1 mm 5 m/s 743 mmHg 72%
    13:00 +7°C° 0.1 mm 6 m/s 743 mmHg 69%
    14:00 +6°C° 0.1 mm 7 m/s 743 mmHg 66%
    15:00 +5°C° 0.2 mm 6 m/s 743 mmHg 69%
    16:00 +4°C° 0.2 mm 6 m/s 743 mmHg 73%
    17:00 +4°C° 0.2 mm 6 m/s 743 mmHg 76%
    18:00 +3°C° 0 mm 5 m/s 744 mmHg 79%
    19:00 +2°C° 0 mm 5 m/s 744 mmHg 81%
    20:00 +2°C° 0 mm 5 m/s 744 mmHg 84%
    21:00 +2°C° 0 mm 5 m/s 744 mmHg 84%
    22:00 +2°C° 0 mm 6 m/s 744 mmHg 84%
    23:00 +2°C° 0 mm 6 m/s 745 mmHg 84%

    Demain, 19 Février, Mercredi

    Heure Température Précipitation Vent Pression Humidité
    00:00 +2°C° 0 mm 6 m/s 745 mmHg 83%
    01:00 +1°C° 0 mm 5 m/s 745 mmHg 83%
    02:00 +1°C° 0 mm 5 m/s 745 mmHg 83%
    03:00 0°C° 0 mm 5 m/s 745 mmHg 84%
    04:00 0°C° 0 mm 4 m/s 745 mmHg 85%
    05:00 -1°C° 0 mm 4 m/s 745 mmHg 86%
    06:00 -1°C° 0 mm 4 m/s 745 mmHg 86%
    07:00 -1°C° 0 mm 4 m/s 745 mmHg 87%
    08:00 -1°C° 0 mm 4 m/s 745 mmHg 87%
    09:00 0°C° 0 mm 4 m/s 745 mmHg 83%
    10:00 +1°C° 0 mm 4 m/s 745 mmHg 79%
    11:00 +2°C° 0 mm 5 m/s 745 mmHg 75%
    12:00 +2°C° 0 mm 5 m/s 744 mmHg 74%
    13:00 +2°C° 0 mm 5 m/s 744 mmHg 74%
    14:00 +3°C° 0 mm 5 m/s 744 mmHg 73%
    15:00 +4°C° 0 mm 4 m/s 744 mmHg 73%
    16:00 +3°C° 0 mm 4 m/s 743 mmHg 74%
    17:00 +3°C° 0 mm 3 m/s 743 mmHg 74%
    18:00 +3°C° 0 mm 3 m/s 743 mmHg 76%
    19:00 +3°C° 0 mm 3 m/s 743 mmHg 78%
    20:00 +2°C° 0 mm 3 m/s 743 mmHg 80%
    21:00 +2°C° 0 mm 3 m/s 743 mmHg 82%
    22:00 +3°C° 0 mm 2 m/s 743 mmHg 84%
    23:00 +2°C° 0 mm 2 m/s 742 mmHg 86%

    Après-demain, 20 Février, Jeudi

    Heure Température Précipitation Vent Pression Humidité
    00:00 +1°C° 0 mm 3 m/s 743 mmHg 87%
    01:00 +1°C° 0 mm 3 m/s 743 mmHg 89%
    02:00 +1°C° 0 mm 3 m/s 743 mmHg 91%
    03:00 +1°C° 0.1 mm 3 m/s 743 mmHg 93%
    04:00 +2°C° 0.1 mm 2 m/s 743 mmHg 95%
    05:00 +2°C° 0.1 mm 2 m/s 743 mmHg 97%
    06:00 +1°C° 0.3 mm 3 m/s 743 mmHg 96%
    07:00 +1°C° 0.3 mm 3 m/s 744 mmHg 96%
    08:00 +1°C° 0.3 mm 3 m/s 744 mmHg 96%
    09:00 0°C° 0.1 mm 4 m/s 745 mmHg 91%
    10:00 +1°C° 0.1 mm 4 m/s 745 mmHg 86%
    11:00 +1°C° 0.1 mm 4 m/s 745 mmHg 81%
    12:00 +1°C° 0 mm 4 m/s 746 mmHg 77%
    13:00 +3°C° 0 mm 4 m/s 746 mmHg 73%
    14:00 +3°C° 0 mm 3 m/s 747 mmHg 68%
    15:00 +3°C° 0 mm 3 m/s 747 mmHg 71%
    16:00 +3°C° 0 mm 3 m/s 747 mmHg 73%
    17:00 +3°C° 0 mm 2 m/s 747 mmHg 75%
    18:00 +3°C° 0 mm 2 m/s 748 mmHg 78%
    19:00 +3°C° 0 mm 2 m/s 748 mmHg 80%
    20:00 +4°C° 0 mm 1 m/s 749 mmHg 83%
    21:00 +2°C° 0 mm 2 m/s 749 mmHg 85%
    22:00 +2°C° 0 mm 2 m/s 749 mmHg 87%
    23:00 +2°C° 0 mm 2 m/s 749 mmHg 89%

    21 Février, Vendredi

    Heure Température Précipitation Vent Pression Humidité
    00:00 +1°C° 0 mm 2 m/s 749 mmHg 90%
    01:00 +1°C° 0 mm 2 m/s 749 mmHg 92%
    02:00 -1°C° 0 mm 2 m/s 748 mmHg 93%
    03:00 -1°C° 0 mm 3 m/s 748 mmHg 92%
    04:00 -1°C° 0 mm 3 m/s 748 mmHg 91%
    05:00 -2°C° 0 mm 4 m/s 747 mmHg 90%
    06:00 -2°C° 0 mm 4 m/s 747 mmHg 87%
    07:00 -2°C° 0 mm 5 m/s 746 mmHg 85%
    08:00 -2°C° 0 mm 5 m/s 746 mmHg 82%
    15:00 -1°C° 0.7 mm 6 m/s 742 mmHg 87%
    16:00 -1°C° 0.7 mm 5 m/s 742 mmHg 92%
    17:00 -1°C° 0.7 mm 4 m/s 742 mmHg 96%
    18:00 -1°C° 0.2 mm 4 m/s 743 mmHg 94%
    19:00 0°C° 0.2 mm 3 m/s 744 mmHg 92%
    20:00 +1°C° 0.2 mm 3 m/s 744 mmHg 90%
    21:00 0°C° 0 mm 3 m/s 745 mmHg 89%
    22:00 -1°C° 0 mm 4 m/s 745 mmHg 88%
    23:00 -1°C° 0 mm 4 m/s 746 mmHg 88%

    22 Février, Samedi

    Heure Température Précipitation Vent Pression Humidité
    00:00 -1°C° 0 mm 4 m/s 746 mmHg 89%
    01:00 0°C° 0 mm 4 m/s 747 mmHg 90%
    02:00 0°C° 0 mm 5 m/s 747 mmHg 91%
    03:00 0°C° 0 mm 5 m/s 748 mmHg 91%
    04:00 0°C° 0 mm 5 m/s 748 mmHg 91%
    05:00 -1°C° 0 mm 4 m/s 748 mmHg 91%
    06:00 -1°C° 0 mm 4 m/s 748 mmHg 91%
    07:00 -1°C° 0 mm 4 m/s 748 mmHg 90%
    08:00 -1°C° 0 mm 4 m/s 749 mmHg 89%
    09:00 0°C° 0 mm 4 m/s 749 mmHg 87%
    10:00 0°C° 0 mm 5 m/s 749 mmHg 84%
    11:00 +1°C° 0 mm 5 m/s 749 mmHg 81%
    12:00 +1°C° 0 mm 5 m/s 748 mmHg 79%
    13:00 +1°C° 0 mm 6 m/s 748 mmHg 77%
    14:00 0°C° 0 mm 7 m/s 747 mmHg 76%
    15:00 0°C° 0 mm 7 m/s 747 mmHg 76%
    16:00 0°C° 0 mm 7 m/s 746 mmHg 76%
    17:00 +1°C° 0 mm 6 m/s 745 mmHg 76%
    18:00 0°C° 0 mm 7 m/s 744 mmHg 76%
    19:00 0°C° 0 mm 7 m/s 744 mmHg 77%
    20:00 0°C° 0 mm 8 m/s 743 mmHg 77%
    21:00 0°C° 0 mm 8 m/s 742 mmHg 79%
    22:00 +1°C° 0 mm 9 m/s 741 mmHg 81%
    23:00 +1°C° 0 mm 9 m/s 740 mmHg 83%

    23 Février, Dimanche

    Heure Température Précipitation Vent Pression Humidité
    00:00 +1°C° 0.1 mm 9 m/s 740 mmHg 84%
    01:00 +2°C° 0.1 mm 9 m/s 739 mmHg 85%
    02:00 +2°C° 0.1 mm 9 m/s 738 mmHg 85%
    03:00 +2°C° 0.4 mm 9 m/s 738 mmHg 82%
    04:00 +2°C° 0.4 mm 9 m/s 738 mmHg 78%
    05:00 +2°C° 0.4 mm 9 m/s 738 mmHg 75%
    06:00 +1°C° 0.1 mm 8 m/s 738 mmHg 75%
    07:00 0°C° 0.1 mm 7 m/s 739 mmHg 76%
    08:00 0°C° 0.1 mm 7 m/s 739 mmHg 77%
    09:00 0°C° 0.1 mm 7 m/s 739 mmHg 72%
    10:00 +1°C° 0.1 mm 8 m/s 739 mmHg 68%
    11:00 +1°C° 0.1 mm 9 m/s 740 mmHg 63%
    12:00 +2°C° 0 mm 9 m/s 740 mmHg 61%
    13:00 +2°C° 0 mm 9 m/s 740 mmHg 58%
    14:00 +4°C° 0 mm 8 m/s 740 mmHg 56%
    15:00 +2°C° 0 mm 8 m/s 740 mmHg 59%
    16:00 +3°C° 0 mm 7 m/s 740 mmHg 62%
    17:00 +2°C° 0 mm 7 m/s 740 mmHg 65%
    18:00 +2°C° 0.1 mm 6 m/s 740 mmHg 73%
    19:00 +1°C° 0.1 mm 6 m/s 740 mmHg 81%
    20:00 +1°C° 0.1 mm 5 m/s 740 mmHg 89%
    21:00 +1°C° 0.3 mm 5 m/s 739 mmHg 89%
    22:00 +1°C° 0.3 mm 5 m/s 739 mmHg 89%
    23:00 +1°C° 0.3 mm 5 m/s 738 mmHg 89%
    Voir plus